TDRS 11

Last updated on Mon Nov 03 2025 00:02:46 GMT+0000 (Coordinated Universal Time)

1 39070U 13004A 25306.49896727 .00000094 00000+0 00000+0 0 9996 2 39070 3.2038 26.7327 0001386 28.5281 352.1303 1.00277378 44424
UTC large
Height (km)
Speed (km/s)
/
Latitude / Longitude
Inclination (degrees)
Orbital Period (minutes)
Azimuth
Elevation
Range (km)
Doppler Factor

Next 0 passes for location: London (51.5072 / 0.1276)

Sorry there are no passes over London.